This demonstration page uses our WeatherBlox Daily Observations layout. Learn more.

38.88101, -77.10428

Hourly Observations for February 19, 2018

Temp ( °F °C ) Dew Point ( °F °C ) Humidity (%) Winds ( mph kmh ) Pressure ( in mb ) Visibility ( mi km ) Precip ( " mm )
12:52 am 00:52 Mostly Cloudy 40 4.4 33 0.6 77 77 SSE 9 15 30.49 1033 10 16.0934 0 0
1:52 am 01:52 Cloudy 40 4.4 34 1.1 79 79 S 12 19 30.49 1033 10 16.0934 0 0
2:52 am 02:52 Cloudy 41 5 35 1.7 79 79 S 10 17 30.49 1033 10 16.0934 0 0
3:52 am 03:52 Cloudy 40 4.4 34 1.1 79 79 SW 5 7 30.49 1033 10 16.0934 0 0
4:52 am 04:52 Cloudy 40 4.4 35 1.7 83 83 S 6 9 30.5 1033 10 16.0934 0 0
5:52 am 05:52 Cloudy 41 5 35 1.7 79 79 S 6 9 30.5 1033 10 16.0934 0 0
6:52 am 06:52 Cloudy with Light Rain 41 5 37 2.8 86 86 S 12 19 30.47 1032 10 16.0934 0 0.0254
7:52 am 07:52 Cloudy 41 5 39 3.9 93 93 S 5 7 30.49 1033 10 16.0934 0.02 0.508
8:33 am 08:33 Cloudy 41 5 39 3.9 93 93 S 8 13 30.5 1033 10 16.0934 0 0
8:52 am 08:52 Cloudy 42 5.6 39 3.9 89 89 SSW 8 13 30.49 1033 10 16.0934 0 0
9:42 am 09:42 Cloudy 42 5.6 40 4.4 92 92 S 10 17 30.48 1032 10 16.0934 0 0
9:52 am 09:52 Cloudy 42 5.6 40 4.4 92 92 S 8 13 30.48 1032 10 16.0934 0 0
10:52 am 10:52 Cloudy 43 6.1 39 3.9 86 86 S 8 13 30.48 1032 10 16.0934 0 0
11:52 am 11:52 Cloudy 44 6.7 39 3.9 83 83 S 9 15 30.46 1032 10 16.0934 0 0
12:24 pm 12:24 Cloudy with Mist and Fog 43 6.1 41 5 93 93 S 10 17 30.45 1031 5 8.0467 0 0
12:29 pm 12:29 Cloudy with Mist and Fog 43 6.1 41 5 93 93 S 10 17 30.45 1031 2.5 4.02335 0 0
12:52 pm 12:52 Cloudy with Mist and Fog 43 6.1 42 5.6 97 97 S 7 11 30.42 1030 2.5 4.02335 0 0
1:07 pm 13:07 Cloudy with Mist and Fog 43 6.1 42 5.6 97 97 S 8 13 30.42 1030 3 4.82802 0 0
1:35 pm 13:35 Cloudy with Mist and Fog 44 6.7 43 6.1 96 96 S 7 11 30.42 1030 5 8.0467 0 0
1:45 pm 13:45 Cloudy with Mist and Fog 44 6.7 43 6.1 96 96 S 8 13 30.39 1029 2.5 4.02335 0 0
1:52 pm 13:52 Cloudy with Mist and Fog 44 6.7 43 6.1 96 96 S 8 13 30.4 1030 2.5 4.02335 0 0
1:54 pm 13:54 Cloudy with Mist and Fog 44 6.7 43 6.1 96 96 S 8 13 30.42 1030 3 4.82802 0 0
2:31 pm 14:31 Cloudy with Mist and Fog 44 6.7 44 6.7 100 100 S 8 13 30.39 1029 2 3.21868 0 0
2:52 pm 14:52 Cloudy with Mist and Fog 44 6.7 44 6.7 100 100 SSE 9 15 30.37 1029 3 4.82802 0 0
3:33 pm 15:33 Cloudy 45 7.2 44 6.7 97 97 SSE 5 7 30.36 1028 10 16.0934 0 0
3:52 pm 15:52 Cloudy 45 7.2 44 6.7 97 97 S 5 7 30.36 1028 10 16.0934 0 0
4:52 pm 16:52 Cloudy 47 8.3 45 7.2 93 93 S 7 11 30.36 1028 10 16.0934 0 0
5:52 pm 17:52 Cloudy 47 8.3 46 7.8 97 97 SSW 7 11 30.35 1028 10 16.0934 0 0
6:52 pm 18:52 Cloudy 48 8.9 47 8.3 96 96 S 8 13 30.35 1028 9 14.48406 0 0
6:59 pm 18:59 Cloudy 48 8.9 47 8.3 96 96 S 7 11 30.36 1028 9 14.48406 0 0
7:27 pm 19:27 Cloudy 48 8.9 47 8.3 96 96 S 8 13 30.36 1028 9 14.48406 0 0
7:52 pm 19:52 Cloudy 48 8.9 47 8.3 96 96 S 7 11 30.35 1028 8 12.87472 0 0
8:52 pm 20:52 Cloudy 48 8.9 47 8.3 96 96 SSW 7 11 30.36 1028 8 12.87472 0 0
9:52 pm 21:52 Cloudy 49 9.4 48 8.9 97 97 SSW 5 7 30.35 1028 9 14.48406 0 0
10:52 pm 22:52 Cloudy 50 10 48 8.9 93 93 SSW 8 13 30.36 1028 7 11.26538 0 0
11:52 pm 23:52 Cloudy 50 10 49 9.4 96 96 S 12 19 30.35 1028 10 16.0934 0 0

Powered by AerisWeather